TimeMDT,TemperatureF,Dew PointF,Humidity,Sea Level PressureIn,VisibilityMPH,Wind Direction,Wind SpeedMPH,Gust SpeedMPH,PrecipitationIn,Events,Conditions,WindDirDegrees,DateUTC
12:15 AM,44.6,24.8,46,30.24,10.0,Calm,Calm,-,N/A,,Clear,0,2013-04-27 06:15:00
12:35 AM,46.4,23.0,40,30.24,10.0,Calm,Calm,-,N/A,,Clear,0,2013-04-27 06:35:00
12:55 AM,46.4,23.0,40,30.23,10.0,SSW,3.5,-,N/A,,Clear,210,2013-04-27 06:55:00
1:15 AM,46.4,21.2,37,30.23,10.0,SSW,3.5,-,N/A,,Clear,210,2013-04-27 07:15:00
1:35 AM,42.8,24.8,49,30.22,10.0,Calm,Calm,-,N/A,,Clear,0,2013-04-27 07:35:00
1:55 AM,44.6,23.0,43,30.22,10.0,WSW,3.5,-,N/A,,Clear,250,2013-04-27 07:55:00
2:15 AM,46.4,19.4,34,30.21,10.0,Calm,Calm,-,N/A,,Clear,0,2013-04-27 08:15:00
2:35 AM,46.4,19.4,34,30.20,10.0,WNW,8.1,-,N/A,,Clear,290,2013-04-27 08:35:00
2:55 AM,42.8,21.2,42,30.19,10.0,WNW,5.8,-,N/A,,Clear,290,2013-04-27 08:55:00
3:14 AM,44.6,19.4,37,30.19,10.0,WNW,8.1,-,N/A,,Clear,290,2013-04-27 09:14:00
3:35 AM,44.6,17.6,34,30.19,10.0,Calm,Calm,-,N/A,,Clear,0,2013-04-27 09:35:00
3:55 AM,46.4,17.6,32,30.20,10.0,WSW,3.5,-,N/A,,Clear,250,2013-04-27 09:55:00
4:15 AM,44.6,17.6,34,30.19,10.0,WNW,5.8,-,N/A,,Clear,290,2013-04-27 10:15:00
4:35 AM,44.6,17.6,34,30.19,10.0,West,8.1,-,N/A,,Clear,260,2013-04-27 10:35:00
4:55 AM,46.4,15.8,29,30.18,10.0,WNW,15.0,-,N/A,,Clear,290,2013-04-27 10:55:00
5:14 AM,51.8,12.2,21,30.19,10.0,WNW,17.3,-,N/A,,Clear,290,2013-04-27 11:14:00
5:35 AM,51.8,12.2,21,30.19,10.0,NW,12.7,-,N/A,,Clear,310,2013-04-27 11:35:00
5:49 AM,50.0,12.2,22,30.18,40.0,WNW,15.0,20.7,N/A,,Clear,290,2013-04-27 11:49:00
5:55 AM,50.0,12.2,22,30.18,10.0,WNW,13.8,20.7,N/A,,Clear,300,2013-04-27 11:55:00
6:46 AM,51.8,12.2,21,30.20,40.0,NW,8.1,-,N/A,,Clear,320,2013-04-27 12:46:00
7:47 AM,57.2,15.8,20,30.20,50.0,Variable,3.5,-,N/A,,Clear,0,2013-04-27 13:47:00
8:56 AM,60.8,14.0,16,30.20,50.0,SE,6.9,-,N/A,,Clear,130,2013-04-27 14:56:00
9:52 AM,64.4,8.6,11,30.19,50.0,Variable,6.9,-,N/A,,Clear,0,2013-04-27 15:52:00
10:51 AM,68.0,10.4,11,30.20,50.0,Variable,5.8,-,N/A,,Clear,0,2013-04-27 16:51:00
11:51 AM,68.0,6.8,9,30.19,50.0,Variable,4.6,-,N/A,,Partly Cloudy,0,2013-04-27 17:51:00
12:45 PM,71.6,6.8,8,30.17,30.0,North,6.9,-,N/A,,Partly Cloudy,350,2013-04-27 18:45:00
1:45 PM,71.6,3.2,7,30.15,30.0,ENE,5.8,-,N/A,,Partly Cloudy,70,2013-04-27 19:45:00
2:56 PM,73.4,5.0,7,30.13,40.0,SSW,10.4,16.1,N/A,,Partly Cloudy,210,2013-04-27 20:56:00
3:55 PM,73.4,3.2,6,30.10,30.0,SSW,6.9,-,N/A,,Partly Cloudy,210,2013-04-27 21:55:00
4:50 PM,73.4,6.8,8,30.08,30.0,NNW,4.6,-,N/A,,Partly Cloudy,340,2013-04-27 22:50:00
6:47 PM,69.8,8.6,9,30.07,30.0,West,11.5,-,N/A,,Scattered Clouds,270,2013-04-28 00:47:00
7:45 PM,62.6,10.4,13,30.08,30.0,West,11.5,-,N/A,,Partly Cloudy,280,2013-04-28 01:45:00
8:45 PM,62.6,12.2,14,30.09,15.0,West,16.1,-,N/A,,Partly Cloudy,280,2013-04-28 02:45:00
9:46 PM,57.2,14.0,18,30.10,20.0,West,15.0,-,N/A,,Clear,270,2013-04-28 03:46:00
11:14 PM,53.6,15.8,22,30.09,10.0,West,6.9,-,N/A,,Clear,270,2013-04-28 05:14:00
11:35 PM,53.6,17.6,24,30.08,10.0,WNW,9.2,-,N/A,,Clear,300,2013-04-28 05:35:00
11:55 PM,53.6,15.8,22,30.08,10.0,NW,3.5,-,N/A,,Clear,310,2013-04-28 05:55:00